This demonstration page uses our WeatherBlox Daily Observations layout. Learn more.

Hourly Observations for June 6, 2017

Temp ( °F °C ) Dew Point ( °F °C ) Humidity (%) Winds ( mph kmh ) Pressure ( in mb ) Visibility ( mi km ) Precip ( " mm )
12:54 am 00:54 Clear 65 18.3 56 13.3 73 73 Calm 29.92 1013 10 16.0934 0 0
1:54 am 01:54 Clear 67 19.4 53 11.7 61 61 ENE 3 6 29.92 1013 10 16.0934 0 0
2:54 am 02:54 Clear 65 18.3 53 11.7 66 66 Calm 29.94 1014 10 16.0934 0 0
3:54 am 03:54 Clear 69 20.6 53 11.7 57 57 ESE 7 11 29.94 1014 10 16.0934 0 0
4:54 am 04:54 Partly Cloudy 69 20.6 54 12.2 59 59 SE 9 15 29.96 1014 10 16.0934 0 0
5:54 am 05:54 Partly Cloudy 69 20.6 54 12.2 59 59 ESE 10 17 29.97 1015 10 16.0934 0 0
6:54 am 06:54 Mostly Cloudy 70 21.1 56 13.3 61 61 ESE 12 19 29.98 1015 10 16.0934 0 0
7:54 am 07:54 Partly Cloudy 70 21.1 55 12.8 59 59 SE 9 15 30 1016 10 16.0934 0 0
8:54 am 08:54 Mostly Cloudy 73 22.8 57 13.9 57 57 SSE 10 17 30.02 1017 10 16.0934 0 0
9:54 am 09:54 Sunny 75 23.9 57 13.9 54 54 SE 9 15 30.02 1017 10 16.0934 0 0
10:54 am 10:54 Mostly Cloudy 79 26.1 58 14.4 49 49 Calm 30.05 1018 10 16.0934 0 0
11:54 am 11:54 Sunny 80 26.7 58 14.4 47 47 VRB 6 9 30.03 1017 10 16.0934 0 0
12:54 pm 12:54 Sunny 82 27.8 58 14.4 44 44 SSE 9 15 30.02 1017 10 16.0934 0 0
1:54 pm 13:54 Sunny 85 29.4 57 13.9 39 39 SSE 13 20 29.99 1016 10 16.0934 0 0
2:54 pm 14:54 Mostly Cloudy 83 28.3 54 12.2 37 37 E 9 15 29.98 1015 10 16.0934 0 0
3:54 pm 15:54 Mostly Cloudy 84 28.9 54 12.2 36 36 ESE 9 15 29.99 1016 10 16.0934 0 0
4:54 pm 16:54 Mostly Cloudy 85 29.4 51 10.6 31 31 E 9 15 29.98 1015 10 16.0934 0 0
5:54 pm 17:54 Sunny 85 29.4 52 11.1 32 32 E 7 11 29.97 1015 10 16.0934 0 0
6:54 pm 18:54 Sunny 83 28.3 51 10.6 33 33 ESE 7 11 29.96 1015 10 16.0934 0 0
7:54 pm 19:54 Sunny 80 26.7 50 10 35 35 E 9 15 29.98 1015 10 16.0934 0 0
8:54 pm 20:54 Sunny 77 25 49 9.4 37 37 ESE 7 11 29.98 1015 10 16.0934 0 0
9:54 pm 21:54 Clear 73 22.8 50 10 44 44 ESE 6 9 30.01 1016 10 16.0934 0 0
10:54 pm 22:54 Clear 71 21.7 50 10 47 47 SSE 5 7 30.02 1017 10 16.0934 0 0
11:54 pm 23:54 Clear 69 20.6 51 10.6 53 53 Calm 30.04 1017 10 16.0934 0 0

Powered by AerisWeather